Fort Morgan, CO

12:51 AM MDT on March 25, 2017 (GMT -0600)
Fort Morgan

Weather History for KFMM - October, 2013

Change the Weather History Date:

Saturday, October 19, 2013

  Actual Average (KAKO) Record (KAKO)
Temperature  
Mean Temperature 45 °F -  
Max Temperature 62 °F 62 °F 86 °F (2003)
Min Temperature 28 °F 33 °F 17 °F (1976)
Degree Days  
Heating Degree Days 20    
Moisture  
Dew Point 28 °F    
Average Humidity 61    
Maximum Humidity 94    
Minimum Humidity 22    
Precipitation  
Precipitation 0.00 in - - ()
Sea Level Pressure  
Sea Level Pressure 30.00 in    
Wind  
Wind Speed 6 mph (West)    
Max Wind Speed 10 mph    
Max Gust Speed -    
Visibility 10 miles    
Events      
Averages and records for this station are not official NWS values.
T = Trace of Precipitation, MM = Missing Value Source: NWS Daily Summary

Daily Weather History Graph

Daily Weather History Graph

Search for Another Location

Airport or City:

Trip Planner

Search our weather history database for the weather conditions in past years. The results will help you decide how hot, cold, wet, or windy it might be!

Date:

Astronomy

Oct. 19, 2013 Rise Set
Actual Time 7:10 AM MDT 6:08 PM MDT
Civil Twilight 6:43 AM MDT 6:36 PM MDT
Nautical Twilight 6:11 AM MDT 7:08 PM MDT
Astronomical Twilight 5:39 AM MDT 7:39 PM MDT
Moon 6:38 PM MDT (10/19) 7:50 AM MDT (10/19)
Length of Visible Light 11h 53m
Length of Day
10h 58m
Full, 99% of the Moon is Illuminated
Oct 19
Full
Oct 26
Last Quarter
Nov 3
New
Nov 9
First Quarter
Nov 17
Full

Hourly Weather History & Observations

Time (MDT) Temp. Windchill Dew Point Humidity Pressure Visibility Wind Dir Wind Speed Gust Speed Precip Events Conditions
12:15 AM 28.4 °F 24.6 °F 25.3 °F 88% 30.10 in 10.0 mi WSW 3.5 mph - N/A   Clear
12:35 AM 29.1 °F 23.0 °F 25.5 °F 86% 30.09 in 10.0 mi West 5.8 mph - N/A   Clear
12:55 AM 29.1 °F 21.3 °F 26.2 °F 89% 30.09 in 10.0 mi West 8.1 mph - N/A   Clear
1:15 AM 29.7 °F 20.7 °F 26.6 °F 88% 30.08 in 10.0 mi West 10.4 mph - N/A   Clear
1:35 AM 29.3 °F 20.2 °F 26.4 °F 89% 30.07 in 10.0 mi West 10.4 mph - N/A   Clear
1:55 AM 29.3 °F 20.2 °F 27.0 °F 91% 30.07 in 10.0 mi West 10.4 mph - N/A   Clear
2:15 AM 29.8 °F 21.5 °F 27.3 °F 90% 30.07 in 10.0 mi West 9.2 mph - N/A   Scattered Clouds
2:35 AM 29.1 °F 21.3 °F 27.0 °F 92% 30.07 in 10.0 mi West 8.1 mph - N/A   Overcast
2:55 AM 29.3 °F 20.2 °F 27.3 °F 92% 30.06 in 10.0 mi West 10.4 mph - N/A   Overcast
3:15 AM 30.4 °F 21.5 °F 28.2 °F 92% 30.05 in 10.0 mi West 10.4 mph - N/A   Overcast
3:35 AM 31.8 °F 23.3 °F 29.3 °F 90% 30.05 in 10.0 mi West 10.4 mph - N/A   Overcast
3:55 AM 32.0 °F 24.2 °F 29.7 °F 91% 30.05 in 10.0 mi West 9.2 mph - N/A   Overcast
4:15 AM 32.0 °F 24.2 °F 29.3 °F 90% 30.04 in 10.0 mi West 9.2 mph - N/A   Overcast
4:35 AM 30.6 °F 23.1 °F 28.6 °F 92% 30.04 in 10.0 mi West 8.1 mph - N/A   Mostly Cloudy
4:55 AM 29.3 °F 21.5 °F 27.9 °F 94% 30.04 in 10.0 mi West 8.1 mph - N/A   Scattered Clouds
5:15 AM 29.5 °F 21.8 °F 27.7 °F 93% 30.04 in 10.0 mi West 8.1 mph - N/A   Clear
5:35 AM 30.2 °F 23.4 °F 28.2 °F 92% 30.04 in 10.0 mi West 6.9 mph - N/A   Clear
5:55 AM 29.8 °F 24.9 °F 27.5 °F 91% 30.04 in 10.0 mi WNW 4.6 mph - N/A   Clear
6:15 AM 30.2 °F 23.4 °F 27.5 °F 90% 30.04 in 10.0 mi West 6.9 mph - N/A   Clear
6:35 AM 29.3 °F 22.3 °F 27.1 °F 92% 30.04 in 10.0 mi West 6.9 mph - N/A   Clear
6:55 AM 29.8 °F 22.2 °F 27.9 °F 92% 30.04 in 10.0 mi West 8.1 mph - N/A   Clear
7:15 AM 30.2 °F 21.9 °F 27.9 °F 91% 30.03 in 10.0 mi West 9.2 mph - N/A   Clear
7:35 AM 30.2 °F 22.6 °F 27.9 °F 91% 30.03 in 10.0 mi West 8.1 mph - N/A   Clear
7:55 AM 32.2 °F 25.8 °F 29.3 °F 89% 30.04 in 10.0 mi West 6.9 mph - N/A   Clear
8:15 AM 34.0 °F 26.6 °F 30.2 °F 86% 30.04 in 10.0 mi West 9.2 mph - N/A   Clear
8:35 AM 36.5 °F 31.8 °F 30.9 °F 80% 30.04 in 10.0 mi West 5.8 mph - N/A   Clear
8:55 AM 39.0 °F 36.8 °F 31.5 °F 74% 30.05 in 10.0 mi SW 3.5 mph - N/A   Clear
9:15 AM 40.5 °F 36.5 °F 30.0 °F 66% 30.06 in 10.0 mi West 5.8 mph - N/A   Clear
9:35 AM 42.8 °F 38.6 °F 29.5 °F 59% 30.06 in 10.0 mi WSW 6.9 mph - N/A   Clear
9:55 AM 44.8 °F 41.0 °F 28.8 °F 53% 30.06 in 10.0 mi WSW 6.9 mph - N/A   Clear
10:15 AM 46.0 °F 42.5 °F 28.0 °F 50% 30.06 in 10.0 mi West 6.9 mph - N/A   Clear
10:35 AM 48.2 °F - 29.5 °F 48% 30.06 in 10.0 mi West 6.9 mph - N/A   Clear
10:55 AM 49.6 °F - 30.2 °F 47% 30.05 in 10.0 mi WSW 5.8 mph - N/A   Clear
12:15 PM 55.4 °F - 31.3 °F 40% 30.03 in 10.0 mi South 3.5 mph - N/A   Clear
12:55 PM 58.1 °F - 28.2 °F 32% 30.02 in 10.0 mi Calm Calm - N/A   Clear
1:35 PM 59.9 °F - 26.1 °F 27% 30.00 in 10.0 mi East 3.5 mph - N/A   Clear
1:55 PM 60.8 °F - 23.9 °F 24% 29.99 in 10.0 mi NNW 4.6 mph - N/A   Clear
2:15 PM 61.9 °F - 22.5 °F 22% 29.98 in 10.0 mi WNW 8.1 mph - N/A   Clear
2:35 PM 61.0 °F - 23.0 °F 23% 29.97 in 10.0 mi Calm Calm - N/A   Clear
2:55 PM 61.7 °F - 25.3 °F 25% 29.96 in 10.0 mi Calm Calm - N/A   Clear
3:15 PM 61.7 °F - 23.5 °F 23% 29.96 in 10.0 mi NNW 3.5 mph - N/A   Clear
3:35 PM 62.1 °F - 24.4 °F 24% 29.95 in 10.0 mi Calm Calm - N/A   Clear
3:55 PM 62.1 °F - 24.4 °F 24% 29.95 in 10.0 mi Calm Calm - N/A   Clear
4:15 PM 62.1 °F - 24.1 °F 23% 29.94 in 10.0 mi Calm Calm - N/A   Clear
4:35 PM 61.9 °F - 25.7 °F 25% 29.94 in 10.0 mi South 3.5 mph - N/A   Clear
4:55 PM 61.0 °F - 25.9 °F 26% 29.93 in 10.0 mi ESE 3.5 mph - N/A   Clear
5:15 PM 60.3 °F - 25.7 °F 27% 29.92 in 10.0 mi Calm Calm - N/A   Clear
5:35 PM 60.4 °F - 26.4 °F 27% 29.93 in 10.0 mi Calm Calm - N/A   Clear
5:55 PM 56.7 °F - 30.4 °F 37% 29.93 in 10.0 mi Calm Calm - N/A   Clear
6:15 PM 54.1 °F - 28.9 °F 38% 29.93 in 10.0 mi ENE 3.5 mph - N/A   Clear
6:35 PM 51.8 °F - 30.9 °F 45% 29.93 in 10.0 mi East 3.5 mph - N/A   Clear
6:55 PM 48.2 °F - 29.1 °F 48% 29.93 in 10.0 mi ESE 5.8 mph - N/A   Clear
7:15 PM 49.3 °F - 27.3 °F 43% 29.93 in 10.0 mi ESE 4.6 mph - N/A   Clear
7:35 PM 47.5 °F - 28.8 °F 48% 29.93 in 10.0 mi East 4.6 mph - N/A   Clear
7:55 PM 48.6 °F - 27.7 °F 44% 29.93 in 10.0 mi NE 5.8 mph - N/A   Clear
8:15 PM 44.2 °F 41.8 °F 30.2 °F 58% 29.93 in 10.0 mi ENE 4.6 mph - N/A   Clear
8:35 PM 47.5 °F - 28.0 °F 47% 29.93 in 10.0 mi ENE 3.5 mph - N/A   Clear
8:55 PM 49.1 °F - 26.6 °F 42% 29.92 in 10.0 mi East 5.8 mph - N/A   Clear
9:15 PM 46.9 °F - 27.1 °F 46% 29.92 in 10.0 mi Calm Calm - N/A   Clear
9:35 PM 46.2 °F - 27.9 °F 49% 29.92 in 10.0 mi Calm Calm - N/A   Clear
9:55 PM 45.5 °F - 28.4 °F 51% 29.92 in 10.0 mi Calm Calm - N/A   Clear
10:15 PM 41.9 °F 40.0 °F 29.5 °F 61% 29.92 in 10.0 mi NE 3.5 mph - N/A   Clear
10:35 PM 43.3 °F 40.7 °F 28.4 °F 56% 29.92 in 10.0 mi NE 4.6 mph - N/A   Clear
10:55 PM 43.0 °F 40.3 °F 28.4 °F 56% 29.91 in 10.0 mi ENE 4.6 mph - N/A   Clear
11:15 PM 41.4 °F 38.4 °F 28.6 °F 60% 29.91 in 10.0 mi ENE 4.6 mph - N/A   Clear
11:35 PM 42.1 °F 40.2 °F 28.2 °F 58% 29.91 in 10.0 mi ESE 3.5 mph - N/A   Clear
11:55 PM 39.4 °F - 28.8 °F 66% 29.90 in 10.0 mi Calm Calm - N/A   Clear